CW9197 Juva FI current weather conditions

sailwx.info

Wind from 301

Air temperature 15.0° C
Dewpoint 14.7° C

Last reported at 2017-Aug-22 12:05 UTC.
Time now 2017-Aug-22 13:09 UTC

Location: N 61°53' E 027°53'.
View on Google Maps.

See reports from other nearby stations

  
Tides and Currents Weather Stations Pressure Air Temp Water Temp Dewpoint Dewpoint Depression Visibility Wind Speed Wind Dir Waves Ship Positions
date/time (UTC)wind fromknots sea level pressurealtimeterstation pressurevisibilityair tempwater tempwave heightnotes
2017-Aug-22 12:05 301 15.0
2017-Aug-22 11:55 262 15.0
2017-Aug-22 11:45 025 14.4
2017-Aug-22 11:35 225 14.4
2017-Aug-22 11:25 292 14.4
2017-Aug-22 11:15 309 14.4
2017-Aug-22 11:05 337 14.4
2017-Aug-22 10:55 297 14.4
2017-Aug-22 10:45 236 14.4
2017-Aug-22 10:35 227 15.0
2017-Aug-22 10:25 229 15.0
2017-Aug-22 10:15 226 15.0
2017-Aug-22 10:05 209 15.0
2017-Aug-22 09:55 236 15.0
2017-Aug-22 09:45 221 15.0
2017-Aug-22 09:35 218 0 gusting 1 15.0
2017-Aug-22 09:25 213 0 gusting 1 15.0
2017-Aug-22 09:15 221 0 gusting 1 15.0
2017-Aug-22 09:05 216 0 gusting 1 15.0
2017-Aug-22 08:55 197 0 gusting 2 15.0
2017-Aug-22 08:45 210 15.0
2017-Aug-22 08:35 202 0 gusting 1 15.0
2017-Aug-22 08:25 205 0 gusting 2 14.4
2017-Aug-22 08:15 186 0 gusting 3 14.4
2017-Aug-22 08:05 097 13.9
2017-Aug-22 07:55 145 13.9
2017-Aug-22 07:45 090 0 gusting 2 13.3
2017-Aug-22 07:35 111 13.3
2017-Aug-22 07:25 045 13.3
2017-Aug-22 07:15 074 0 gusting 6 13.3
2017-Aug-22 07:05 091 0 gusting 3 13.3
2017-Aug-22 06:55 055 13.3
2017-Aug-22 06:45 064 1 gusting 2 13.3
2017-Aug-22 06:35 051 0 gusting 4 12.8
2017-Aug-22 06:25 054 0 gusting 4 12.8
2017-Aug-22 06:15 057 0 gusting 3 13.3
2017-Aug-22 06:05 049 0 gusting 2 13.3
2017-Aug-22 05:55 054 13.3
2017-Aug-22 05:45 059 13.3
2017-Aug-22 05:35 076 13.3
2017-Aug-22 05:25 13.3
2017-Aug-22 05:15 13.3
2017-Aug-22 05:05 13.3
2017-Aug-22 04:55 13.3
2017-Aug-22 04:45 13.3
2017-Aug-22 04:35 12.8
2017-Aug-22 04:25 12.8
2017-Aug-22 04:15 12.8
2017-Aug-22 04:05 12.8
2017-Aug-22 03:55 12.8
2017-Aug-22 03:45 12.8
2017-Aug-22 03:35 12.8
2017-Aug-22 03:25 301 12.8
2017-Aug-22 03:15 321 12.8
2017-Aug-22 03:05 324 12.8
2017-Aug-22 02:55 252 0 gusting 3 12.8
2017-Aug-22 02:45 12.8
2017-Aug-22 02:35 202 12.8
2017-Aug-22 02:25 234 12.8
2017-Aug-22 02:15 247 12.8
2017-Aug-22 02:05 248 12.8
2017-Aug-22 01:55 12.8
2017-Aug-22 01:45 12.8
2017-Aug-22 01:35 284 12.8
2017-Aug-22 01:25 182 12.8
2017-Aug-22 01:15 180 13.3
2017-Aug-22 01:05 202 12.8
2017-Aug-22 00:55 12.8
2017-Aug-22 00:45 12.8
2017-Aug-22 00:35 12.8
2017-Aug-22 00:25 13.3
2017-Aug-22 00:15 13.3
2017-Aug-22 00:05 13.3
2017-Aug-21 23:55 204 13.3
2017-Aug-21 23:45 202 13.3
2017-Aug-21 23:35 186 13.3
2017-Aug-21 23:25 167 13.3
2017-Aug-21 23:15 189 13.3
2017-Aug-21 23:05 198 0 gusting 1 13.3
2017-Aug-21 22:55 185 13.3
2017-Aug-21 22:45 192 13.3
2017-Aug-21 22:35 204 13.3
2017-Aug-21 22:25 213 13.3
2017-Aug-21 22:15 202 13.3
2017-Aug-21 22:05 204 13.3
2017-Aug-21 21:55 225 13.3
2017-Aug-21 21:45 13.3
2017-Aug-21 21:35 240 13.3
2017-Aug-21 21:25 13.3
2017-Aug-21 21:15 173 13.3
2017-Aug-21 21:05 235 13.3
2017-Aug-21 20:55 187 13.3
2017-Aug-21 20:45 227 13.3
2017-Aug-21 20:35 228 0 gusting 1 13.3
2017-Aug-21 20:25 226 13.3
2017-Aug-21 20:15 13.3
2017-Aug-21 20:05 13.3
2017-Aug-21 19:55 13.3
2017-Aug-21 19:45 13.3
2017-Aug-21 19:35 13.3
2017-Aug-21 19:25 225 13.3
2017-Aug-21 19:15 253 13.3
2017-Aug-21 19:05 214 13.3
2017-Aug-21 18:55 13.3
2017-Aug-21 18:45 226 13.9
2017-Aug-21 18:35 243 13.3
2017-Aug-21 18:25 13.3
2017-Aug-21 18:15 205 13.3
2017-Aug-21 18:05 171 13.9
2017-Aug-21 17:55 189 0 gusting 1 13.9
2017-Aug-21 17:45 187 13.9
2017-Aug-21 17:35 220 13.9
2017-Aug-21 17:25 193 13.9
2017-Aug-21 17:15 159 13.9
2017-Aug-21 17:05 328 13.9
2017-Aug-21 16:55 120 13.9
2017-Aug-21 16:45 094 13.9
2017-Aug-21 16:35 185 13.9
2017-Aug-21 16:25 160 13.9
2017-Aug-21 16:15 146 13.9
2017-Aug-21 16:05 115 13.9
2017-Aug-21 15:55 152 13.9
2017-Aug-21 15:45 064 13.9
2017-Aug-21 15:35 080 0 gusting 3 13.9
2017-Aug-21 15:25 110 13.9
2017-Aug-21 15:15 109 13.9
2017-Aug-21 15:05 154 13.9
2017-Aug-21 14:55 060 13.9
2017-Aug-21 14:45 062 13.9
2017-Aug-21 14:35 13.9
2017-Aug-21 14:25 14.4
2017-Aug-21 14:15 173 14.4
2017-Aug-21 14:05 177 14.4
2017-Aug-21 13:55 193 14.4
2017-Aug-21 13:45 185 0 gusting 2 14.4
2017-Aug-21 13:35 175 14.4
2017-Aug-21 13:25 170 0 gusting 5 14.4
2017-Aug-21 13:15 182 1 gusting 5 14.4
2017-Aug-21 13:05 178 0 gusting 4 14.4
2017-Aug-21 12:55 174 0 gusting 4 14.4
2017-Aug-21 12:45 169 14.4
2017-Aug-21 12:35 158 15.0
2017-Aug-21 12:25 096 0 gusting 3 14.4
2017-Aug-21 12:15 113 0 gusting 3 15.0
2017-Aug-21 12:05 082 1 gusting 4 15.0
2017-Aug-21 11:55 082 0 gusting 2 15.0
2017-Aug-21 11:45 074 0 gusting 2 15.6
2017-Aug-21 11:35 085 0 gusting 3 15.6
2017-Aug-21 11:25 075 1 gusting 3 15.6
2017-Aug-21 11:15 082 0 gusting 4 15.6
2017-Aug-21 11:05 071 0 gusting 1 15.6
2017-Aug-21 10:55 084 15.6
2017-Aug-21 10:45 069 15.6
2017-Aug-21 10:35 089 15.6
2017-Aug-21 10:25 15.6
2017-Aug-21 10:15 076 15.6
2017-Aug-21 10:05 058 0 gusting 1 15.6
2017-Aug-21 09:55 049 15.6
2017-Aug-21 09:45 090 0 gusting 3 16.1
2017-Aug-21 09:35 101 0 gusting 3 16.7
2017-Aug-21 09:25 191 0 gusting 3 17.2
2017-Aug-21 09:15 191 0 gusting 3 17.2
2017-Aug-21 09:05 096 17.2
2017-Aug-21 08:55 197 17.8
2017-Aug-21 08:45 220 17.8
2017-Aug-21 08:35 205 0 gusting 2 17.8
2017-Aug-21 08:25 221 0 gusting 1 18.3
2017-Aug-21 08:15 204 1 gusting 2 18.3
2017-Aug-21 08:05 221 0 gusting 2 18.3
2017-Aug-21 07:55 223 1 gusting 3 17.8
2017-Aug-21 07:45 230 0 gusting 2 18.3
2017-Aug-21 07:35 210 1 gusting 2 18.3
2017-Aug-21 07:25 219 1 gusting 3 17.8
2017-Aug-21 07:15 212 1 gusting 3 17.8
2017-Aug-21 07:05 215 1 gusting 4 17.8
2017-Aug-21 06:55 211 1 gusting 3 18.3
2017-Aug-21 06:45 222 1 gusting 3 17.8
2017-Aug-21 06:35 215 1 gusting 3 17.8
2017-Aug-21 06:25 217 1 gusting 4 18.9
2017-Aug-21 06:15 217 1 gusting 4 18.3
2017-Aug-21 06:05 213 1 gusting 4 17.8
2017-Aug-21 05:55 210 1 gusting 3 17.2
2017-Aug-21 05:45 218 1 gusting 3 16.7
2017-Aug-21 05:35 220 1 gusting 4 16.1
2017-Aug-21 05:25 213 1 gusting 3 16.7
2017-Aug-21 05:15 213 1 gusting 3 16.7
2017-Aug-21 05:05 224 0 gusting 2 16.1
2017-Aug-21 04:55 220 1 gusting 3 15.6
2017-Aug-21 04:45 217 1 gusting 2 15.0
2017-Aug-21 04:35 215 1 gusting 2 14.4
2017-Aug-21 04:25 214 0 gusting 2 13.9
2017-Aug-21 04:15 217 1 gusting 2 13.3
2017-Aug-21 04:05 219 1 gusting 3 12.8
2017-Aug-21 03:55 218 0 gusting 1 12.8
2017-Aug-21 03:45 222 0 gusting 2 12.8
2017-Aug-21 03:35 239 0 gusting 1 12.2
2017-Aug-21 03:25 219 1 gusting 3 12.2
2017-Aug-21 03:15 217 0 gusting 2 12.2
2017-Aug-21 03:05 217 1 gusting 2 12.2
2017-Aug-21 02:55 204 1 gusting 3 12.2
2017-Aug-21 02:45 207 0 gusting 1 12.2
2017-Aug-21 02:35 210 12.2
2017-Aug-21 02:25 221 12.2
2017-Aug-21 02:15 219 0 gusting 2 12.2
2017-Aug-21 02:05 205 0 gusting 1 12.2
2017-Aug-21 01:55 203 0 gusting 3 12.2
2017-Aug-21 01:45 186 12.2
2017-Aug-21 01:35 194 0 gusting 2 12.2
2017-Aug-21 01:25 208 0 gusting 3 11.7
2017-Aug-21 01:15 210 0 gusting 1 11.7
2017-Aug-21 01:05 209 11.7
2017-Aug-21 00:55 208 11.7
2017-Aug-21 00:45 213 0 gusting 2 11.7
2017-Aug-21 00:35 218 1 gusting 2 11.7
2017-Aug-21 00:25 218 1 gusting 3 12.2
2017-Aug-21 00:15 222 1 gusting 3 12.2
2017-Aug-21 00:05 218 1 gusting 3 11.7
2017-Aug-20 23:55 219 1 gusting 2 11.7
2017-Aug-20 23:45 215 1 gusting 3 11.7
2017-Aug-20 23:35 220 0 gusting 2 11.7
2017-Aug-20 23:25 229 0 gusting 1 11.7
2017-Aug-20 23:15 221 0 gusting 1 12.2
2017-Aug-20 23:05 227 0 gusting 2 12.2
2017-Aug-20 22:55 236 1 gusting 2 12.2
2017-Aug-20 22:45 237 0 gusting 2 12.8
2017-Aug-20 22:35 227 0 gusting 2 12.8
2017-Aug-20 22:25 226 1 gusting 3 12.8
2017-Aug-20 22:15 223 1 gusting 4 12.8
2017-Aug-20 22:05 219 2 gusting 4 12.8
2017-Aug-20 21:55 219 2 gusting 4 12.8
2017-Aug-20 21:45 217 2 gusting 4 13.3
2017-Aug-20 21:35 218 2 gusting 4 13.3
2017-Aug-20 21:25 219 2 gusting 4 13.3
2017-Aug-20 21:15 217 1 gusting 4 13.3
2017-Aug-20 21:05 218 2 gusting 5 13.3
2017-Aug-20 20:55 218 2 gusting 5 13.3
2017-Aug-20 20:45 219 2 gusting 4 13.9
2017-Aug-20 20:35 216 3 gusting 6 13.9
2017-Aug-20 20:25 218 3 gusting 5 13.9
2017-Aug-20 20:15 218 3 gusting 5 14.4
2017-Aug-20 20:05 218 2 gusting 5 14.4
2017-Aug-20 19:55 220 2 gusting 5 14.4
2017-Aug-20 19:45 217 3 gusting 6 15.0
2017-Aug-20 19:35 218 3 gusting 6 15.0
2017-Aug-20 19:25 216 3 gusting 6 15.0
2017-Aug-20 19:15 217 3 gusting 6 15.0
2017-Aug-20 19:05 213 3 gusting 6 15.0
2017-Aug-20 18:55 214 3 gusting 5 15.6
2017-Aug-20 18:45 214 3 gusting 5 15.6
2017-Aug-20 18:35 211 2 gusting 5 15.6
2017-Aug-20 18:25 210 2 gusting 5 15.6
2017-Aug-20 18:15 212 2 gusting 6 15.6
2017-Aug-20 18:05 204 2 gusting 6 15.6
2017-Aug-20 17:55 200 2 gusting 5 16.1
2017-Aug-20 17:45 206 2 gusting 5 16.1
2017-Aug-20 17:35 212 2 gusting 5 16.1
2017-Aug-20 17:25 208 2 gusting 6 16.1
2017-Aug-20 17:15 210 2 gusting 4 16.1
2017-Aug-20 17:05 208 3 gusting 6 16.1
2017-Aug-20 16:55 212 4 gusting 9 16.7
2017-Aug-20 16:45 215 4 gusting 7 16.7
2017-Aug-20 16:35 211 3 gusting 6 17.2
2017-Aug-20 16:25 214 2 gusting 5 17.2
2017-Aug-20 16:15 211 3 gusting 7 17.8
2017-Aug-20 16:05 210 3 gusting 8 17.8
2017-Aug-20 15:55 212 5 gusting 9 18.3
2017-Aug-20 15:45 207 5 gusting 8 18.3
2017-Aug-20 15:35 215 3 gusting 6 18.3
2017-Aug-20 15:25 215 4 gusting 8 18.3
2017-Aug-20 15:15 217 4 gusting 7 18.3
2017-Aug-20 15:05 213 5 gusting 9 18.3
2017-Aug-20 14:55 217 3 gusting 5 18.9
2017-Aug-20 14:45 219 3 gusting 6 18.9
2017-Aug-20 14:35 214 3 gusting 5 18.9
2017-Aug-20 14:25 210 2 gusting 4 19.4
2017-Aug-20 14:15 220 2 gusting 6 19.4
2017-Aug-20 14:05 222 3 gusting 6 19.4
2017-Aug-20 13:55 223 2 gusting 4 19.4
2017-Aug-20 13:45 216 4 gusting 7 19.4
2017-Aug-20 13:35 222 4 gusting 8 20.0
2017-Aug-20 13:25 219 5 gusting 9 19.4
2017-Aug-20 13:15 213 4 gusting 7 19.4
2017-Aug-20 13:05 215 3 gusting 7 20.0